Shanghai Hongqiao International Airport
ZSSS : now visible

Airfield :











YOU CAN JOIN US ON...

 
LOGIN :

Register | Disclaimer

   EN    FR    IT 

 









Legend :    VFR   Marginal VFR   IFR   Intensive IFR   Very Intensive IFR
Visi :
Ceiling :
>= 8 km
>= 3000ft
5 to 8 km
1000 to 3000 ft
1500m to 5 km
500 to 1000 ft
800 to 1500m
200 to 500 ft
< 800m
< 200 ft
Symbols :   Thunderstorms  Fog  Heavy snow  Heavy precipitations  Wind > 20 kt






- Airport Elevation : 10 ft
- IATA code : SHA


ZSSS - Shanghai Hongqiao International

CURRENT METAR :
  • 250530Z 07003MPS 030V140 CAVOK 28/14 Q1011 NOSIG

EXPIRED METARs :
  • 250500Z 07002MPS 010V120 CAVOK 27/13 Q1011 NOSIG
  • 250430Z 03003MPS 340V090 CAVOK 27/16 Q1012 NOSIG
  • 250400Z VRB02MPS CAVOK 27/17 Q1012 NOSIG
  • 250330Z VRB02MPS CAVOK 27/18 Q1012 NOSIG
  • 250300Z 01003MPS CAVOK 25/16 Q1012 NOSIG

TAF TAF ZSSS
Valid from the 25 at 06:00 until the 26 at 06:00 UTC


250302Z 2506/2606 05004MPS 6000 BKN015 TX27/2506Z TN20/2520Z
BECMG 2511/2512 12004MPS
ZSHA FIR / Asia



MET'MAP, your aeronautical weather chart ! - Copyright ORBIFLY December 2007 - Disclaimer

ORBIFLY MET'MAP TEAM :

Programming & Development : Alexandra Zaïnal
Concept & original design : Baudouin d'Aumeries
Assistance for programming : Marc-Olivier Méhu
Technical & hardware support : Manuel Goepfert

Contact : metmap@orbifly.com




SOURCES & CREDITS :

   NOAA       Earth
Advisory